User: anonymous
Location: Caltech
(34.1382°N, 118.1253°W)
Time: 18:57:38
(UTC-07:00)
Language:

SL-08 R/B - Orbit

View from above orbital plane
View from above orbital plane
View from above satellite
View from above satellite

Ground track
Ground track

The orbit data is extracted from the following two-line orbital elements,

1 27561U 02054C   14233.43574815  .00000175  00000-0  50501-4 0  2634
2 27561 098.1156 011.6725 0047993 126.7494 282.7169 14.54941368622369
Epoch (UTC): 21 August 2014 10:27:28
Eccentricity: 0.0047993
inclination: 98.1156°
perigee height: 675 km
apogee height: 743 km
right ascension of ascending node: 11.6725°
argument of perigee: 126.7494°
revolutions per day: 14.54941368
mean anomaly at epoch: 282.7169°
orbit number at epoch: 62236

The dashed part of the orbit path shows where the satellite is in the earth's shadow,  

DLR